TIMESTAMP,CO2_1_1_1,H2O_1_1_1,TAU_1_1_1,TAU_SSITC_TEST_1_1_1,H_1_1_1,H_SSITC_TEST_1_1_1,LE_1_1_1,LE_SSITC_TEST_1_1_1,FC_1_1_1,FC_SSITC_TEST_1_1_1,WD_0_0_1,WS_0_0_1,WS_MAX_0_0_1,U_SIGMA_0_0_1,V_SIGMA_0_0_1,W_SIGMA_0_0_1,USTAR_0_0_1,MO_LENGTH_0_0_1,ZL_0_0_1,FETCH_MAX_0_0_1,FETCH_70_0_0_1,FETCH_80_0_0_1,FETCH_90_0_0_1,PA_0_0_1,RH_0_0_1,TA_0_0_1,VPD_0_0_1,T_SONIC_0_0_1,T_SONIC_SIGMA_0_0_1
[yyyymmddHHMMSS],[mmolCO2 mol-1],[mmolH2O mol-1],[kg m-1 s-2],[#],[W m-2],[#],[W m-2],[#],[umolCO2 m-2 s-1],[#],[Decimal degrees],[m s-1],[m s-1],[m s-1],[m s-1],[m s-1],[m s-1],[m],[#],[m],[m],[m],[m],[kPa],[%],[deg C],[hPa],[deg C],[deg C]
20240612003000,410.66229540840339,12.818860589107965,0.63127605702787981,0,15.801521228957021,0,27.490561552720919,0,-2.7093786929324879,0,178.35064748408780,3.1942224474639933,9.4534003932091810,1.4757824759233273,1.1846236169401934,0.92929222249892562,0.74841594277323442,-2211.7517368891754,-8.5904759033775934E-003,105.30463377236656,192.53045572625194,230.40978253980359,288.44570632040347,93.797752907118067,68.989000000000004,15.390333333333331,5.4062267740601468,16.055071258544956,8.5969992928401184E-002
20240612010000,411.00961781238760,13.042771302391106,0.50448250542069417,0,-11.485436327607500,0,19.735448868048550,0,-1.5044149163341547,0,180.68771952324445,3.6359861557761493,9.3919344889478413,1.4224984018857043,1.1470072174530541,0.86090723560836602,0.66889793260319363,2172.4120269967498,8.7460388562967690E-003,102.32404414640672,187.08098727969272,223.88816062293390,280.28140956429189,93.794337781467007,70.931666666666672,15.226999999999975,5.0146767952066851,15.971576297760066,9.1675821075572664E-002
20240612013000,411.52451489010656,13.152587260714073,0.35495215993077878,0,-33.617324928283715,0,6.1077424284167794,1,2.9944596834442390,0,173.59963914567993,3.0325584131038381,8.4286400932513299,1.1437075126053831,1.0571026458249391,0.78311990400835729,0.56058300052840937,436.91381158651512,4.3486837669442113E-002,95.830604798362344,175.20890917520737,209.68031530292177,262.49487318789488,93.801915419921883,73.852999999999994,14.731666666666683,4.3691112484806220,15.590909632364855,0.17092146535520988
20240612020000,412.26610871110529,13.338353519319098,0.27069747556080226,0,-43.723968434168277,0,4.6617099489326161,1,5.6642375037917656,0,169.37042480557201,2.9554948647124886,6.6612827112223698,1.0014965885506470,0.87916282351280928,0.66696390352261425,0.48920284578187845,223.26142654260627,8.5102027225352872E-002,97.715670272440335,178.65541007261896,213.80489662851184,267.65835956690853,93.806979777956414,76.926000000000002,14.318666666666672,3.7540806144577417,15.271509670730438,0.17731463531275066
20240612023000,413.71596221617790,13.544326892244344,0.23218521016134241,0,-54.590894462191251,0,3.6067319833056057,2,5.8301768802078513,0,159.68676553374354,2.7170643563714023,6.1263070236424069,0.93781429534808136,0.72453025619397615,0.58757214596273488,0.45256039197422493,141.59933665382914,0.13418141955318405,101.61250864819971,185.78007345636246,222.33129903443418,278.33240359940697,93.829627391493048,81.223666666666674,13.720666666666659,2.9386109573028922,14.738069913228458,0.22921263777382389
20240612030000,414.72689497520531,13.673356607659940,0.26499989023739401,0,-46.645329937815447,0,-4.5471859718010190,1,5.8648564312135836,0,156.68088069095091,2.6140416302678666,6.1875198839071208,0.95169357875688476,0.79587491664103172,0.62521974453589035,0.48311943595769502,201.65321053118618,9.4221162906115014E-002,101.87611142421130,186.26202340270504,222.90807002847242,279.05445244180692,93.857203992187493,83.980000000000004,13.358333333333348,2.4487580331363303,14.413293838500977,0.20476141045927887
20240612033000,416.53495403580263,13.706165359816989,0.28832290072286632,0,-55.385350794154213,0,-2.0912480036807408,0,9.3386252748012559,0,158.46241895141014,2.3738897280179736,6.3883087118002351,0.94894418221917409,0.75395042026862102,0.62423864654139538,0.50368033254773026,192.45340612804355,9.8725194748483042E-002,105.46257536003868,192.81922332140235,230.75536359892573,288.87833279828413,93.858866652935390,85.756666666666661,13.074666666666644,2.1372311653632550,14.129106451281132,0.19425713274668321
20240612040000,417.86288153232431,13.676634106452756,0.24545927724609537,0,-46.672122643862629,0,-2.2920958051899203,0,7.4549137760626527,0,158.30480449666854,2.3425279115462452,6.5048515308350190,0.97919228996110674,0.80247686412478558,0.59799874254012186,0.46452528703260992,179.15181824073980,0.10605530095412299,102.30625128068587,187.04845624641155,223.84922928463817,280.23267214850625,93.858673822048615,87.013333333333335,12.819333333333361,1.9163816715151734,13.862296389261928,0.19404011968609799
20240612043000,420.12015171864761,13.586763808811332,0.10662462759908471,0,-31.668443333647605,0,1.0853345493946944,1,5.8913082922561664,0,167.00915113461457,1.7141248972768743,4.4749156388196489,0.71577418457739272,0.66800237473413504,0.45987029760131831,0.30593089806203450,75.423743597085846,0.25191006298358948,90.374370465937389,165.23317263884746,197.74190650756123,247.54940203922692,93.865906857421876,88.723333333333329,12.423333333333346,1.6213742763475216,13.441090788947236,0.21837211839576329
20240612050000,421.15403205926464,13.504847006603693,0.12386422936986088,0,-46.172064324234348,0,-2.5768938260230434,0,10.658077088214860,0,175.63586740417682,2.0671213547100931,5.6124766823516614,0.77305796955395234,0.62246744686425970,0.44387327645939845,0.32957358382987090,64.675714400145608,0.29377333016297108,98.675563760306858,180.41040151076496,215.90517314890496,270.28765654256233,93.867959455512164,89.756666666666661,12.155666666666662,1.4470985714407834,13.176704988267716,0.25553171844245498
20240612053000,420.03357913846844,13.575684433368826,0.14642728276765277,0,-55.980033730887001,0,-0.99649629059860600,1,10.853939635503520,0,177.33366958457637,2.4330765488245567,5.1955750603424180,0.74045107643915042,0.66422174650360044,0.52773411710226448,0.35840530291400352,68.602606148342403,0.27695740827856413,91.880278742030228,167.98645325235614,201.03688020425045,251.67431811167921,93.862254058159735,89.716666666666669,12.240999999999985,1.4609319166966703,13.273871534559476,0.25154455583349333
20240612060000,419.52557652176080,13.690132729310124,0.16310046815268359,0,-52.093385610644027,0,-1.5824955533689637,1,6.0474149472261196,0,185.61995230619411,2.9162840711400912,5.5170505055496868,0.79173582224960171,0.67168313333365459,0.50719141342533869,0.37832776427106202,86.713107458888445,0.21911335617868488,99.040302234994357,181.07725976986382,216.70323216707041,271.28673173217726,93.863117187282995,89.929999999999993,12.332666666666682,1.4392756838360925,13.380959810892762,0.25261492144137948
20240612063000,420.76943046207629,13.795575500805292,0.20314727611236860,0,-50.484703302134655,0,-4.1456264296391518,1,5.4928056047928102,0,194.36214128821823,2.9214986431005388,6.3552105603714946,0.87775185693765001,0.69510401280894829,0.55845972910465003,0.42225815331675864,124.40475536273559,0.15272728075868466,100.12069277202383,183.05255824444242,219.06715994287114,274.24608879360534,93.860638140981095,90.483333333333334,12.355666666666650,1.3622476607462433,13.392233038876327,0.22506118325372568
20240612070000,421.12668740700303,13.873803946583843,0.15996351591409330,0,-38.576203354348017,0,-1.1669685112988959,1,4.4446163720891887,0,195.45976697884129,2.6452858662779684,5.9461300577515166,0.82376148187384679,0.61533936828821578,0.47914898097609315,0.37471374992400119,113.77751682784341,0.16699257049834257,102.85801726036716,188.05726043400236,225.05651024499974,281.74404464970860,93.863150279513903,90.873333333333335,12.376666666666665,1.3082263394344478,13.422144215901710,0.24500606691488006
20240612073000,422.14433971428326,13.889533208541222,0.11610922432780996,0,-36.217523516323112,0,-0.42285006336887293,0,4.6117325942658747,0,198.82442270935096,2.2739248555259928,4.8773148110964710,0.77077130476417899,0.58231330402669423,0.39813245347846521,0.31917845633506903,74.903913350863490,0.25365830902586572,104.92034056626566,191.82784518146769,229.56893716693389,287.39306769191234,93.876736261501733,91.453333333333333,12.299333333333323,1.2188754753428521,13.342663831922778,0.27019155124763594
20240612080000,422.93905422609606,13.882916279056037,5.5221968562426324E-002,0,-20.607775402739520,0,-0.22965119400217029,2,2.6132246887074904,0,199.26796139213863,2.7344617679935346,4.5496523946723979,0.52576098746422073,0.44540066127436484,0.32808039169132602,0.22008612848414641,43.162726689851858,0.44019461829938461,90.979766245961571,166.34002920581264,199.06653112310678,249.20767487221494,93.888924503038197,91.696666666666673,12.253666666666675,1.1806209144751620,13.293125162760418,0.22018580250979503
20240612083000,423.37309137838082,13.865760483350172,6.1373409580456152E-002,0,-22.920058493502587,0,-0.78369946751766739,1,2.3306319742199402,0,202.11322652329818,2.7877811218038988,4.6814374188641823,0.51972895389734408,0.42826933712647669,0.30004287975011479,0.23195730851656321,45.434652808759544,0.41818301286406895,101.91419734431751,186.33165661154041,222.99140319487864,279.15877567747424,93.894705763454851,92.416666666666671,12.117000000000019,1.0685900468552700,13.125355827331532,0.22478619612021170
20240612090000,423.64163140565347,13.965088714773451,0.10384949702051879,0,-39.450147962975144,0,0.41312106726709980,1,2.8758019339240719,0,210.36562805789424,2.9959249706304565,5.4467232600726376,0.66587214817117946,0.50856722403506682,0.35949134861539300,0.30170377231641610,58.090652883063292,0.32707499497805737,108.83503906292593,198.98516256241146,238.13441806755770,298.11603336255411,93.902776806580931,93.319999999999993,12.079000000000008,0.93894541506171891,13.119861528430761,0.31605772599293253
20240612093000,423.30330698064938,14.242515141660697,0.10079499375282872,0,-36.023025571622590,0,0.41529951154060296,2,2.4431856890049635,0,212.40197901650248,3.5704841776907901,5.9010848011319199,0.62392809521310866,0.53689939232240091,0.39121744624045457,0.29751380185111642,61.006033579758920,0.31144460449407046,100.58333307892964,183.89841227702422,220.07943118573726,275.51333226919826,93.901004192787923,92.079999999999998,12.581333333333362,1.1506235983138278,13.685782141021718,0.30741544313328417
20240612100000,425.34981596948040,14.055568393391484,0.10854061772198359,0,-33.785807425835493,0,0.96676516261136369,2,2.1089623287207551,0,199.83134767168085,3.5195180906939272,5.8085726013727852,0.62742798294010149,0.62026165022604463,0.37926502398046297,0.30853788251599334,72.544284483963580,0.26190898614762798,106.15671247756029,194.08832735591076,232.27415699453914,290.77968190301146,93.900144893229168,92.950000000000003,12.237000000000023,1.0013153579050345,13.269250816345334,0.42280915679862385
20240612103000,426.58326927668270,13.960445587180516,0.11120786901694714,0,-47.227052504289318,0,-0.60628081638586573,1,2.9355731766184578,0,183.66484432573384,3.2169697238603385,5.6879451628136906,0.72666589804397252,0.60353529171061937,0.42173825302711115,0.31212736054766294,53.724933511422023,0.35365329946775204,98.420592661615913,179.94423302349682,215.34728853073793,269.58925120161427,93.890744740234368,94.429999999999993,11.892666666666685,0.77336363860024904,12.955592830234082,0.28705237493713076
20240612110000,427.12641758309553,13.990770063668251,0.11316941137105746,0,-28.959594541417008,0,0.53227678539925083,1,0.84911160815230424,0,177.42020753143950,2.7830542687346371,5.3836805262455085,0.74133511025584842,0.63699135202200541,0.44375477986440415,0.31492191174243311,89.990051617262012,0.21113444940346490,95.170591364244686,174.00219411715199,208.23618557775572,260.68699413865420,93.891988753090629,94.026666666666671,11.990666666666641,0.83474215615840874,13.050599673801401,0.17761626348365442
20240612113000,426.85376183517712,14.128711861868018,7.5483480765509231E-002,0,-5.5804873662581898,1,-1.8701956421704713,1,-1.2424634339862615,0,200.35879294022851,2.5530944802755799,4.9407025528791300,0.61206915420912189,0.48240623442496455,0.33365686231908581,0.25729163589118920,254.76103916595682,7.4579692649247645E-002,101.70806344914459,185.95477810813037,222.54037588240971,278.59414300311101,93.933450210069452,92.996666666666670,12.313666666666677,0.99971621794055865,13.401328325907400,0.17668656122717119
20240612120000,425.36311409857768,14.492862407593089,0.14944881913805988,0,20.707484534030218,1,12.489211966699987,1,-4.9428552003183306,0,190.99162894324780,2.8278498872643478,5.7226086669031027,0.82970688564438755,0.68847871673777683,0.49606262302700299,0.36257766124822338,-192.12397114893466,-9.8894478842888295E-002,97.442076480170854,178.15519336208575,213.20626498313410,266.90894378311083,93.916547040364591,90.673333333333332,13.084999999999980,1.4004243035546120,14.237150470309871,0.27018865840514467
20240612123000,423.06935132441180,14.930477135138169,0.14625929321518180,0,15.221254552426755,0,23.412582158483062,0,-5.9746286426341921,0,190.60169881014809,2.1931927246096921,4.7658514518123205,0.76773121924727261,0.62057303910788231,0.47376063889555814,0.35950629655196781,-254.76992530625233,-7.4577091378272342E-002,100.40906435666047,183.57979347255792,219.69812585316922,275.03598324015985,93.895616839409726,86.400000000000006,14.281000000000006,2.2072963811547517,15.411013721889844,0.44238079467043906
20240612130000,419.86992689782892,15.309158781295782,0.21705686926466250,0,29.313426049800988,0,62.400052569087947,0,-8.3405025366609902,0,162.98914021631518,1.9925595742839983,4.6072138089418084,0.91003419590767320,0.75866408443851585,0.53067596818989315,0.43933300863906366,-241.40002228614307,-7.8707532087459314E-002,107.65307282056673,196.82415130258047,235.54823951951704,294.87844470751776,93.865664829861117,79.517666666666670,15.956000000000017,3.7024599469934221,16.991940358479951,0.38118363448532633
20240612133000,417.33501602548841,15.503298306807643,0.17136998430685713,1,61.010129966902234,0,84.073221689748976,0,-9.0636357897708404,1,167.21411541975073,1.8055507153169748,4.8083244187974907,0.83075323219190145,0.69912946832913969,0.51365347646634951,0.39133342638186008,-81.982733765124266,-0.23175611653099892,100.72940548787889,184.16547922798887,220.39904211619088,275.91344722771345,93.876008308214807,73.483999999999995,17.398000000000025,5.2530365120763625,18.448830558708380,0.50093701864673745
20240612140000,414.94845735566417,15.272111383816446,0.38617131961678514,0,52.561191166869129,0,135.55852606494793,0,-8.4755117710699572,0,160.15631859057859,2.7692813269229197,7.1603378322596249,1.2262629661538795,1.0617512377746592,0.69541586176476677,0.58894911216549772,-324.32180833936195,-5.8583787804114891E-002,109.62798788031240,200.43492589864815,239.86941450631036,300.28804302170539,93.854495610677091,66.089333333333329,18.843333333333305,7.3565738497315145,19.809789462619278,0.39769002871680392
20240612143000,413.92245930480675,14.799330553404499,0.70044912632951817,0,137.51651628162497,0,145.68189233483943,0,-11.030013064961530,0,179.46965165455364,3.4053992369620643,9.6916210047814673,1.7438998922674736,1.2886064993148933,0.94001749368865350,0.79494728703155870,-304.85764217902044,-6.2324171584462691E-002,109.50068004537887,200.20216657363821,239.59086104183456,299.93932713853826,93.869890052951391,58.725666666666669,20.240999999999985,9.7664553873235587,21.098308842129313,0.44530553094716258
20240612150000,414.44861590566700,14.279012738701036,0.57563780066878045,0,12.235026903537078,1,137.68137717462798,0,-12.016924900273027,0,176.31679677668410,3.4717231733452247,9.8420732757988763,1.6476570546660136,1.2380833706225569,0.92675631805442638,0.72097952788057795,-2555.3029587314263,-7.4355175518727931E-003,102.42849744516941,187.27196122350193,224.11670765824769,280.56752333212694,93.833004756020031,55.906666666666666,20.451666666666654,10.570112667866265,21.212784674455008,0.23743418531262370
20240612153000,413.28843277564476,14.852664126982189,0.57233873553555059,0,5.0142757245513847,1,111.25130720750568,0,-12.014816848032549,0,179.17620345225606,3.3216053856316279,8.9835986141438280,1.3334382569789665,1.1923860858689728,0.90367538696316485,0.71835185065732932,-6168.7949015842805,-3.0800181077701881E-003,104.21127484672121,190.53144690122809,228.01747953022789,285.45082683341695,93.857259022352437,59.787333333333329,20.007333333333349,9.3786946673148535,20.869252768622573,0.17728448712109529
20240612160000,409.70287149449405,15.590047790828519,0.47758203607127475,0,33.616815692621635,0,135.11764331219388,0,-13.189750956589835,0,182.26642497955177,2.6968401915378557,9.5514046970255801,1.4133606480107981,1.1496936613426305,0.78627449049414433,0.65662728101022083,-702.88134428320745,-2.7031589548554658E-002,108.40534329982766,198.19954166303316,237.19423050137931,296.93903009641400,93.865338190972224,61.504666666666665,20.334333333333348,9.1615549427495946,21.272468291658583,0.29122725305066038
20240612163000,410.57609843438161,15.503541479055885,0.30221623353810917,0,-19.611659302563428,0,65.142224918113897,0,-4.8169916772669046,0,191.63864097320379,3.0173716647638185,7.6546930491812279,1.1532827205404415,1.0592751470338180,0.72987769245619105,0.52197098183157542,605.31117873061248,3.1388813997859033E-002,95.757305127359032,175.07489399888229,209.51993336481428,262.29409403299741,93.890089941639587,62.434333333333335,20.005999999999972,8.7606185655528677,20.977251362809909,9.5481966360769541E-002
20240612170000,410.95847915810049,15.468518778027251,0.67491824183372107,0,-19.274059181109241,0,99.487482039157442,0,-6.7712317341738846,0,208.79116079442935,4.1211877754898252,12.518674050374120,1.6727302375958522,1.5363355604603504,0.99995451787935608,0.78012335181282566,2056.5607198112057,9.2387255173016335E-003,102.66001531457664,187.69524972761562,224.62327588827932,281.20168664455360,93.911951157986095,61.770333333333333,20.146000000000015,8.9930423431868647,21.094440977308579,0.29273766420026276
20240612173000,410.38135484114366,15.509759909240557,0.60943545984575598,0,-31.029369310136762,0,119.38526528840913,0,-10.322878279805339,0,200.96961025680156,3.9964709210500060,10.159309934313784,1.6415935057617379,1.3868518467790591,0.97054637301794211,0.74013510083906908,1090.6546645179974,1.7420729602249340E-002,100.80699477899108,184.30733719797712,220.56880987523576,276.12597631666250,93.884375574652779,65.971999999999994,19.124333333333311,7.5126239461151592,20.128158207363640,0.21283232151504561
20240612180000,410.83493967335471,15.482640612800271,0.72156196294923092,0,-27.535564134316250,0,99.367920830172068,0,-7.8298160410641282,0,196.67494722217901,3.8598968720724112,11.653093594596509,1.7248660270369722,1.3995062762880790,0.99343490434069148,0.80548199109441088,1583.8819341456847,1.1995843623437901E-002,105.87368661738627,193.57086581704431,231.65488769403711,290.00443022395137,93.861326938670274,65.725666666666669,19.152333333333331,7.5802271170867082,20.141891425910899,0.20508069023186573
20240612183000,410.17675506980981,15.519734963957834,0.48005641998949194,0,46.560800740436235,0,137.92668172850506,0,-16.816897746478201,0,188.17877547534198,3.4680684735015963,9.9042224229826790,1.5046857247617755,1.1967616367601910,0.91208096201434230,0.65772490272849893,-509.81448623121923,-3.7268458455264088E-002,96.397021581874682,176.24449970483559,210.91965267337491,264.04637651057982,93.813843632812493,63.859666666666669,19.645666666666671,8.2420114967822400,20.586477437337237,0.26366841847060024
20240612190000,406.44991303667121,16.453597426058685,0.80592699254559974,0,292.68376474036160,1,312.22869310227918,1,-27.864643872430804,0,177.27329657275379,3.3666659069462108,11.539174229853703,1.7782499817225670,1.4913021859197084,1.0423822719578459,0.85466221828269473,-177.89985779176419,-0.10680165929216161,106.82401354787007,195.30836653719771,233.73423229218480,292.60752291682616,93.755618400173617,62.052666666666667,21.046666666666681,9.4361635937173336,21.999845380994941,0.71238753232190410
20240612193000,406.03796253574245,15.802810947487838,1.0197361908391289,0,148.74429974678290,0,302.47784842773575,0,-16.616635024853938,0,167.52254307321212,4.3706252512937409,11.912212660721817,1.9998820101569379,1.7963354886958054,1.2504708147064185,0.96312908094856731,-500.67665860355675,-3.7948643447835433E-002,101.61168397019571,185.77856568195361,222.32949461355773,278.33014467859005,93.692961156250007,56.183333333333330,22.000000000000000,11.550203138801811,22.801293816460543,0.32122019506566873
20240612200000,407.15602631393398,14.588931041642432,1.1667556004615069,0,87.036282694765816,0,305.68663896917241,0,-19.090131175059248,0,169.89985123371645,4.4203919612498428,11.669560804126034,2.1660620197345954,1.7139689193752077,1.2918126948940472,1.0313764498598479,-1050.4290728986857,-1.8087846662096868E-002,104.57527849288928,191.19696165943191,228.81393072095690,286.44788921387322,93.678869320312501,49.535333333333334,22.754333333333363,13.926882458410438,23.465081161499029,0.24899401951300548
20240612203000,409.77081721892961,13.459121751582583,1.3334824701942050,0,209.64378199429615,0,199.96842028280798,1,-9.6494213001056490,1,177.20332335412502,5.2244070899913773,15.691624699552623,2.6087333500181882,2.1814764059098191,1.4881341243184154,1.1047752871873597,-535.64500739459550,-3.5471253792538765E-002,98.664382025615595,180.38995773351795,215.88070716895385,270.25702803890232,93.616252051215284,42.750999999999998,23.848000000000013,16.877420783781208,24.306140327453704,0.38717856059210043
20240612210000,412.16609340372406,13.546209038712922,1.9668704779679784,0,246.84040278067300,0,154.60522431192192,0,-10.548809896991505,0,191.77146620504018,5.4898873783442808,16.900491899402454,2.8068092581442059,2.2911051727766121,1.6017267109703017,1.3423579704098210,-815.86475926307060,-2.3288173418792767E-002,108.71233952308131,198.76082867056436,237.86594769469218,297.77994031357991,93.581274864149307,42.618000000000002,24.000999999999976,17.072842182350765,24.413601696438263,0.37747094019766286
20240612213000,413.11331974283911,14.610255854940513,1.9576448304880272,0,170.55095766714501,0,163.23676540922420,0,-7.6114511581127822,0,199.76195222012564,5.2785029504848469,17.424893884791793,2.7131865725609265,2.3481258446855717,1.5845642407687295,1.3394695288793690,-1173.3921549889344,-1.6192370060782602E-002,109.46449802999568,200.13601430985580,239.51169367761094,299.84021899287148,93.578745840277790,45.995666666666665,23.989666666666665,16.056955815397028,24.594169299655505,0.31245650582867940
20240612220000,414.59508370935538,14.971493282065579,2.2950811795971835,0,154.71540632239353,0,149.00758792194711,0,-5.8912934086944784,0,199.31231536135337,5.9341970061973681,17.012127739697572,2.8583187601129723,2.1863495808260174,1.7146210106934971,1.4504377006182283,-1641.9389366258829,-1.1571684900197459E-002,109.52661119093858,200.24957697803603,239.64759918711255,300.01035656363308,93.539295124371449,47.451999999999998,23.870333333333349,15.512341657708305,24.510452526375332,0.28470429902747635
20240612223000,415.27189265970685,15.181468061195211,1.1783317744565893,0,132.16064199824422,0,143.52210591823416,0,-3.7947586792871748,0,201.47944350985344,5.0538251801056600,14.697725150746688,2.1206587866003441,1.9384368574459354,1.4023396959122225,1.0397747530898560,-708.04439208821941,-2.6834475651962623E-002,98.565228274661166,180.20867305330637,215.66375570749395,269.98543055355151,93.519354727864581,47.549999999999997,24.064333333333309,15.664867376405732,24.722872219509554,0.23151162844028222